Wind_Speed
12 11 10 10 10 10 10 9 9 9 9 8 8 8 7 7 7 7 8 8 7 6 6 6 7 7 7 7 8 8 8 8 8 8 8 8 8 8 8 9 9 10 10 10 10 10 10 10 10 9 8 7 7 6 6 5 4 3 4 4 4 5 6 7 7 7 8 8 7 7 6 5 4 4 4 4 4 4 4 3 3 3 3 3 4
9 8 10 10 10 9 9 9 9 9 9 9 8 8 7 7 7 7 6 6 6 6 6 6 7 7 7 7 7 8 8 8 8 8 8 8 8 8 8 9 9 9 9 10 10 10 9 9 8 8 7 7 6 6 5 4 4 3 3 4 5 6 6 7 7 8 8 8 8 8 7 6 5 5 5 4 4 4 5 5 5 5 5 5 5
8 7 9 9 9 9 10 10 9 9 9 9 8 7 6 6 6 6 5 5 5 6 6 6 6 6 7 6 7 7 8 8 8 8 8 8 8 8 9 9 9 9 9 9 9 9 9 8 7 7 7 6 6 5 4 4 3 3 4 5 6 7 7 7 8 8 8 8 8 8 8 7 7 6 6 5 5 5 6 7 7 7 7 6 6
8 8 9 10 10 10 10 9 9 9 9 8 7 7 6 6 6 5 5 5 5 6 6 6 7 6 7 7 7 8 9 9 8 8 8 8 8 9 9 9 9 9 9 9 9 9 8 7 7 7 6 6 6 5 4 4 4 4 5 6 7 7 7 8 9 9 9 9 9 9 9 8 8 7 7 7 7 7 8 9 9 9 8 8 8
8 9 9 10 10 10 9 9 9 9 8 8 7 7 6 6 5 5 5 5 5 5 6 7 7 7 7 7 8 8 9 9 8 8 8 8 9 9 9 9 9 9 9 9 9 8 7 6 6 6 6 6 6 5 5 5 5 5 6 7 8 8 8 9 9 9 10 10 10 9 9 9 9 9 9 10 10 10 10 10 10 10 9 9 9
8 9 10 11 11 9 9 8 9 8 8 7 7 7 6 6 5 5 5 5 5 5 6 7 7 7 7 8 8 9 9 9 9 9 10 9 10 10 10 9 9 9 9 9 8 8 7 7 6 6 6 5 5 5 5 5 5 5 6 7 8 9 9 10 9 10 10 10 10 10 10 10 11 11 11 12 12 12 11 11 11 11 10 10 9
9 10 11 10 10 9 8 8 8 8 8 7 7 7 6 5 5 5 5 5 5 6 7 7 7 8 8 8 9 9 9 10 10 11 11 10 10 10 10 10 9 9 9 9 9 9 8 7 7 7 6 6 6 6 5 5 5 6 7 8 8 9 10 10 10 10 10 11 11 11 11 12 13 13 13 13 13 13 12 12 12 12 11 10 9
9 10 10 9 9 9 8 8 8 8 8 8 7 6 6 5 5 5 5 5 6 7 7 7 8 8 9 9 9 10 10 10 11 11 11 11 11 10 10 10 9 9 9 10 10 10 9 8 8 7 7 6 6 6 6 6 5 6 7 8 9 9 9 9 9 9 10 11 11 12 13 14 14 14 14 14 14 14 13 12 12 13 12 11 10
8 10 9 9 8 9 8 9 8 8 8 8 7 6 6 6 6 6 5 6 7 7 8 8 8 9 9 10 10 10 10 10 11 11 11 11 11 11 10 10 10 10 10 10 10 10 10 9 9 8 8 7 6 6 6 6 6 6 7 8 9 9 9 9 9 10 10 10 11 12 13 15 15 14 15 14 14 14 14 12 11 12 11 11 10
7 8 8 8 8 8 8 9 9 8 8 7 7 7 7 6 6 6 6 7 7 8 9 9 9 10 10 10 10 10 10 11 11 11 11 11 11 11 10 10 9 10 10 10 10 10 10 10 10 9 9 8 7 7 7 7 7 7 7 8 9 9 9 9 9 10 9 10 11 12 13 15 14 15 15 14 14 13 13 12 11 11 11 10 8
6 7 7 8 8 8 8 9 9 8 8 8 7 7 7 7 7 7 7 8 8 9 10 10 11 11 11 11 10 10 10 11 12 11 11 11 11 11 10 9 9 10 10 11 10 10 10 10 10 10 10 10 9 9 8 8 8 8 8 8 9 9 9 9 9 9 9 10 11 12 13 14 14 14 14 14 14 13 11 10 10 11 10 8 7
5 7 7 8 8 8 9 9 9 9 9 8 7 7 7 8 8 8 8 9 10 10 11 11 12 11 11 11 11 10 11 12 12 11 11 11 11 10 10 9 9 10 11 11 11 10 10 10 11 11 11 11 10 10 9 8 8 8 9 9 9 9 9 9 9 9 9 10 10 11 12 12 12 12 13 13 13 12 11 8 8 9 8 8 7
5 7 8 8 8 8 8 9 9 9 9 8 8 8 8 9 10 10 10 10 11 12 12 12 12 12 12 11 11 12 12 13 12 11 11 11 11 11 11 11 11 11 12 12 11 11 11 11 11 11 11 11 10 10 10 9 8 9 9 8 8 9 9 9 9 9 9 9 9 10 11 11 11 10 11 12 12 11 10 9 7 8 7 7 6
7 7 8 8 8 8 8 8 9 9 9 8 8 9 10 11 11 11 11 11 12 13 13 13 13 13 12 12 12 13 13 13 12 12 11 12 13 13 13 13 13 13 13 13 12 12 12 12 12 12 11 11 11 11 10 9 8 8 8 8 7 8 9 9 8 8 8 8 9 9 10 9 8 9 9 9 9 9 8 8 7 6 5 5 5
7 8 9 8 8 8 8 8 9 9 9 9 9 10 11 12 12 11 12 13 14 14 15 14 14 13 13 13 14 15 14 13 13 13 13 14 14 14 14 14 15 15 15 14 13 13 14 14 13 13 13 12 12 12 11 11 9 8 7 8 7 7 8 9 8 8 8 8 8 8 8 8 7 7 7 7 7 7 6 6 5 5 4 4 4
7 9 9 8 8 8 8 8 9 9 9 9 9 11 12 12 12 13 14 14 15 15 15 15 14 14 14 14 15 15 15 14 14 14 15 15 14 14 14 15 15 15 15 15 14 14 14 14 14 13 13 13 13 13 13 13 12 10 8 8 8 8 8 9 9 9 9 8 8 8 8 7 6 6 6 6 5 5 4 4 4 3 3 3 4
6 8 9 8 8 8 8 8 9 9 10 10 10 11 12 13 13 14 15 15 15 15 15 15 15 14 15 16 16 15 15 15 15 15 15 15 15 14 14 14 15 15 15 15 14 14 13 13 13 13 13 13 13 12 13 13 13 12 11 10 9 9 9 9 9 9 8 9 9 9 8 7 6 5 5 5 4 4 4 3 3 2 3 3 4
6 7 8 8 8 8 8 8 9 10 10 11 12 12 12 13 14 15 16 16 16 15 15 15 15 15 16 16 16 15 16 16 16 15 15 15 14 14 14 14 14 15 15 15 14 14 14 13 13 12 12 12 12 12 12 12 13 14 14 13 11 10 9 9 9 8 7 7 7 8 8 8 7 6 5 4 4 3 3 2 2 2 2 3 4
7 7 7 8 8 9 9 9 9 10 10 12 13 13 13 13 14 16 16 16 16 15 15 15 15 16 17 16 16 16 16 16 16 15 15 14 13 13 14 14 15 15 15 15 15 14 14 14 13 13 12 13 13 12 11 12 13 13 14 14 13 12 11 9 8 8 7 6 6 6 6 6 6 6 6 5 4 3 2 1 1 1 1 2 3
6 7 7 8 8 9 9 9 10 10 11 12 13 13 13 13 15 16 16 16 16 15 16 16 17 17 17 17 16 17 17 16 15 15 14 13 13 13 14 15 15 15 15 15 14 14 14 14 14 13 13 14 14 13 12 12 12 12 13 14 14 13 12 11 9 8 7 6 6 6 5 5 5 5 5 5 5 4 3 2 1 1 1 1 2
6 6 7 8 9 9 9 10 10 11 12 12 13 13 13 13 15 17 16 17 17 17 17 18 18 18 18 17 17 17 16 15 15 14 14 13 13 13 14 15 15 14 14 14 13 13 13 13 13 13 13 14 14 13 13 12 13 12 12 13 13 13 12 12 11 10 9 8 7 6 6 6 5 5 4 4 5 5 4 4 3 2 3 3 4
7 7 7 8 9 10 10 11 11 11 12 12 12 13 13 13 15 17 17 18 18 18 18 19 19 18 18 18 17 16 15 14 14 14 14 14 13 13 14 14 14 13 13 13 12 13 13 13 13 13 13 13 13 13 13 12 13 12 12 12 12 12 12 13 13 12 11 9 8 7 7 7 6 6 5 4 4 4 4 4 4 4 4 5 6
7 8 8 9 9 10 11 11 12 12 12 12 13 13 14 14 16 18 19 19 19 19 19 19 19 18 18 17 16 15 14 13 13 14 14 13 13 13 13 13 13 13 13 12 12 12 12 12 12 12 13 13 12 13 13 13 13 13 12 12 12 11 11 12 13 13 12 11 10 8 8 7 7 7 6 5 4 3 3 3 4 4 5 5 6
8 7 8 9 10 10 11 12 12 12 12 12 13 14 15 16 17 19 20 20 19 19 19 19 19 18 17 17 16 15 14 13 13 13 13 13 12 12 12 12 12 12 12 12 12 11 11 11 11 12 12 12 11 12 13 12 13 13 12 12 12 11 11 12 12 13 13 12 11 10 9 8 7 7 7 7 5 4 3 3 3 3 4 4 5
8 7 7 9 11 11 11 12 13 12 12 13 14 15 16 18 19 20 21 21 20 19 19 18 17 17 16 15 15 15 14 13 12 12 12 12 12 12 12 11 11 11 11 11 11 11 11 11 11 10 10 10 10 11 12 13 12 12 12 12 12 12 12 12 12 12 12 12 12 11 10 9 8 8 7 7 7 5 4 3 3 3 4 4 5
7 7 7 9 10 11 11 12 13 12 12 13 14 16 18 19 20 21 21 20 19 18 17 16 15 15 15 14 14 14 13 12 12 12 12 12 11 11 11 10 10 9 10 10 10 10 10 10 9 9 9 9 9 10 12 13 13 12 12 12 12 12 12 12 12 12 12 11 12 12 11 10 9 9 8 8 8 7 5 5 5 5 6 6 7
7 7 8 9 10 11 11 12 13 13 13 14 15 17 19 20 20 20 20 19 17 16 15 15 14 14 13 13 13 13 13 12 12 12 11 11 11 10 10 10 9 8 8 9 9 9 9 8 8 7 8 8 8 8 10 12 14 12 12 12 13 12 12 12 12 12 12 11 12 12 12 12 11 10 10 10 10 9 8 8 8 8 9 9 9
7 7 8 9 10 11 11 12 13 13 14 15 16 17 19 20 20 20 19 18 17 16 15 15 14 13 12 12 12 12 12 12 11 11 11 10 10 10 10 10 9 8 7 8 9 8 8 7 6 7 8 8 8 8 9 10 12 13 12 12 13 13 12 13 12 12 12 11 12 13 13 13 12 12 11 12 12 11 11 11 11 11 11 11 11
7 7 8 10 11 10 11 12 13 13 14 15 17 18 19 20 20 19 18 17 16 16 15 14 13 12 12 12 12 12 12 11 11 10 10 10 10 10 10 9 9 8 8 8 8 8 8 7 6 7 6 7 8 9 9 9 9 11 12 11 12 13 13 14 14 13 12 10 12 14 14 14 13 13 13 13 13 13 13 12 12 13 13 12 12
6 7 8 10 11 11 11 12 13 14 15 16 17 18 19 20 19 18 18 17 16 15 14 13 12 12 12 12 12 12 11 11 11 10 10 9 10 10 10 9 9 9 9 8 9 8 8 7 7 7 6 6 8 9 9 10 8 7 9 10 10 12 12 13 14 14 13 11 12 13 13 14 14 14 14 14 14 14 14 13 13 12 12 12 12
7 7 7 9 11 11 11 12 13 14 15 16 17 18 19 20 19 18 17 16 16 15 14 13 12 12 12 11 11 11 11 11 11 10 9 9 10 10 9 9 9 9 9 9 9 8 7 7 7 7 6 6 7 8 9 11 9 4 7 10 9 10 12 13 13 13 13 13 13 13 13 13 13 14 15 15 14 14 13 13 12 12 11 12 12
8 8 8 9 11 12 12 12 13 14 16 16 17 18 19 19 19 18 17 16 15 14 14 13 13 12 12 12 11 11 11 11 10 9 9 9 9 9 8 8 8 9 9 9 9 7 7 7 6 5 5 6 7 8 9 10 8 4 6 10 8 8 10 11 12 12 13 14 14 14 13 13 13 13 15 15 14 13 13 12 11 11 11 11 11
8 9 9 9 11 12 12 12 13 15 16 17 17 17 18 19 18 17 16 15 14 14 13 13 13 12 12 12 12 11 11 10 9 8 9 9 9 8 7 8 8 8 9 9 8 8 8 7 6 5 5 6 7 9 10 10 7 3 4 8 7 6 8 9 10 10 11 12 13 13 13 13 13 13 14 14 13 13 12 12 11 11 11 11 11
9 10 10 9 10 12 13 13 13 15 17 17 17 17 18 18 17 16 15 15 14 13 12 12 12 12 11 12 12 11 10 9 8 8 8 8 8 7 7 7 8 8 9 9 8 8 9 7 7 7 6 6 7 9 9 9 8 4 3 7 7 6 7 8 8 8 9 10 11 12 13 12 13 13 13 13 13 12 12 11 11 11 10 10 10
10 11 12 11 11 13 14 13 14 15 17 17 17 17 17 17 16 15 15 14 13 12 12 12 12 12 11 11 11 10 9 8 7 7 7 8 7 7 7 8 8 9 9 10 9 9 9 9 9 9 8 8 9 8 7 7 8 7 4 6 7 6 6 6 6 7 8 8 9 10 11 11 11 12 12 12 12 11 10 11 10 10 9 9 9
11 11 12 12 13 15 15 14 14 16 17 18 18 17 17 16 16 15 14 14 13 12 11 12 12 12 11 11 10 9 8 7 7 7 8 8 7 8 8 8 9 10 10 11 10 10 11 11 11 11 12 12 10 7 6 7 9 9 7 6 7 8 6 6 6 6 7 7 7 8 8 8 8 9 10 10 9 9 9 9 9 8 7 7 7
12 12 13 13 14 16 16 15 15 16 17 18 18 18 17 16 16 15 14 13 13 12 12 12 11 11 12 11 10 8 7 7 7 7 8 8 8 9 9 9 10 11 12 12 12 12 13 13 13 14 15 15 13 10 9 9 11 11 9 8 8 9 8 6 6 6 6 7 7 7 6 6 6 7 7 7 6 6 7 7 6 6 6 6 6
13 13 14 14 15 17 17 17 17 17 17 18 18 18 17 16 16 15 14 13 12 12 12 11 11 11 11 10 9 8 7 7 7 7 8 8 9 10 10 10 11 12 12 14 14 13 14 15 15 15 16 16 15 14 13 12 12 12 11 9 9 9 8 8 7 6 6 7 7 6 6 5 5 5 5 5 4 4 5 5 5 5 5 6 6
13 13 14 14 14 17 18 17 18 18 18 19 18 17 16 16 15 14 14 13 12 11 11 11 11 11 10 10 9 7 7 7 7 7 8 9 10 10 10 11 12 12 13 14 14 14 15 15 15 16 16 17 17 15 15 14 14 13 12 11 11 10 10 9 9 8 7 7 7 6 6 6 5 5 5 4 3 3 4 4 5 5 5 5 5
14 14 14 14 15 17 18 18 18 19 19 19 18 17 15 15 15 14 14 13 12 12 11 11 11 11 11 10 9 8 7 7 7 7 8 9 10 10 10 12 13 13 13 14 14 14 15 15 14 15 16 17 17 16 16 15 14 14 13 12 12 11 10 9 10 10 9 8 8 8 7 7 7 6 5 4 3 3 4 5 5 5 5 5 5
14 14 14 15 15 18 19 19 20 20 20 20 19 18 17 16 15 14 14 13 13 12 12 12 12 11 11 10 9 8 8 7 7 8 8 9 9 10 10 12 13 13 13 13 13 13 14 14 14 14 15 15 16 15 15 15 15 14 14 14 13 12 12 11 10 10 10 9 9 9 9 9 8 7 7 6 5 5 5 5 5 5 5 5 5
14 15 15 16 16 18 20 21 21 21 21 21 21 20 19 17 16 15 14 14 13 13 12 12 12 12 11 10 9 8 8 7 7 7 8 9 9 9 10 12 12 12 12 12 12 12 13 13 13 13 13 14 14 13 13 14 15 14 15 15 15 14 14 14 12 11 10 10 10 9 9 10 10 9 8 7 7 6 6 5 5 5 5 5 5
15 16 17 17 16 18 20 21 22 22 23 22 21 20 18 16 15 14 13 13 13 13 13 13 12 12 11 10 9 8 7 7 7 7 7 8 8 9 10 11 12 12 11 11 11 11 11 11 11 11 12 12 12 12 12 14 15 14 14 15 15 14 14 15 14 12 11 10 10 9 9 10 10 9 8 8 7 6 5 5 5 4 5 5 5
15 16 17 16 15 17 20 22 23 23 23 22 21 19 16 15 14 13 13 12 13 13 13 13 13 12 10 9 9 8 7 7 6 6 6 7 8 9 10 11 12 12 11 10 11 10 10 10 10 11 12 11 11 11 11 13 13 13 13 13 13 13 13 13 13 12 11 10 10 10 9 10 9 8 8 7 7 6 5 4 4 4 4 5 5
14 17 17 17 16 17 20 23 25 25 24 23 21 18 15 14 13 13 12 12 13 13 13 13 13 12 11 10 9 8 7 6 6 5 6 6 7 8 9 10 11 12 11 11 10 9 9 9 9 10 11 12 12 12 12 12 12 11 11 11 12 11 11 11 11 10 10 10 10 9 8 8 8 7 7 6 6 5 4 4 4 4 4 5 5
13 17 19 19 18 18 20 23 25 25 25 23 21 18 17 15 15 15 15 15 15 15 14 13 13 12 11 10 10 9 8 7 6 5 5 5 6 7 7 9 10 11 11 11 10 9 8 9 9 10 12 13 14 14 13 13 12 11 10 9 10 10 10 10 10 9 8 9 9 8 7 7 7 6 6 5 5 4 4 4 4 4 5 6 5
12 16 19 20 19 19 20 22 24 25 24 23 21 19 18 17 17 17 16 16 15 14 13 12 13 12 12 12 11 10 9 7 5 4 4 4 5 6 6 7 8 9 10 10 9 8 8 8 8 9 11 13 14 14 14 14 13 12 11 10 9 10 10 10 10 9 8 8 8 8 7 6 6 6 6 6 5 4 5 5 5 5 6 6 5
12 15 18 20 19 19 20 22 23 24 23 22 20 19 18 18 17 16 15 14 13 13 13 13 14 14 14 13 12 10 8 7 5 4 3 3 4 5 5 6 6 7 8 9 9 8 8 7 7 7 9 11 12 13 13 13 13 13 12 11 11 11 11 11 11 10 10 10 10 9 8 7 6 6 6 5 5 5 5 5 5 6 6 6 6
12 15 19 21 20 20 20 22 23 23 22 21 20 19 18 18 17 16 14 13 13 13 13 13 14 14 13 12 10 9 8 7 6 5 3 3 3 4 4 5 5 6 7 7 7 7 7 7 6 6 7 8 9 11 11 11 12 12 12 11 11 11 11 12 12 11 11 11 11 11 10 9 8 8 7 7 6 6 6 6 6 6 6 6 6
12 16 20 22 22 20 20 21 22 22 22 21 20 19 18 17 16 15 13 12 13 13 13 13 12 12 11 10 9 8 8 7 6 5 3 2 2 2 3 4 4 4 5 5 5 6 6 7 6 5 5 6 7 8 9 9 10 10 11 10 10 10 10 11 11 11 11 11 11 10 10 9 9 9 9 8 8 7 7 7 8 8 7 7 7
12 15 19 22 21 20 20 21 22 22 22 21 20 19 18 17 16 15 13 13 13 13 13 12 11 11 10 9 9 8 7 7 6 4 3 2 1 1 2 3 4 4 3 3 3 3 4 5 5 5 5 4 5 6 6 7 8 8 8 9 9 9 9 10 11 11 11 11 11 11 10 10 10 9 9 8 8 8 9 9 9 8 8 8 8
Wind_Direction
128 129 132 136 136 132 132 133 131 128 126 124 122 121 120 119 114 109 106 106 108 118 131 137 136 133 128 124 120 117 116 115 113 111 110 112 112 111 110 112 113 115 117 118 121 120 116 114 114 117 120 119 115 111 107 100 88 74 62 55 51 47 46 44 45 46 45 50 61 70 75 77 76 74 67 61 68 81 87 92 100 112 115 106 105
124 124 131 136 134 130 131 132 129 129 128 127 125 122 120 115 107 102 101 103 111 124 131 132 127 122 117 111 105 103 105 104 102 103 105 109 111 111 112 113 116 117 117 114 111 107 105 106 110 115 117 118 117 113 105 97 86 71 54 44 45 49 54 55 59 55 51 56 63 68 75 77 76 74 72 73 82 96 103 108 116 118 119 118 111
124 126 129 133 132 129 131 131 130 130 128 126 124 121 117 109 102 98 99 106 114 123 126 122 117 111 106 99 94 95 95 91 90 95 100 106 110 109 109 110 110 110 108 106 103 102 102 105 111 115 116 116 114 107 98 88 76 60 50 46 47 54 62 69 71 64 59 64 67 69 71 74 76 74 73 78 86 98 107 112 119 121 123 119 106
130 131 130 131 129 128 130 130 129 126 124 125 122 118 112 104 97 98 103 109 115 120 120 114 109 106 102 97 93 91 87 85 88 95 99 103 105 103 101 99 96 95 95 96 98 100 103 108 113 115 115 113 108 101 90 77 66 56 57 57 60 65 73 80 76 67 66 70 71 71 72 74 78 81 82 84 89 98 105 111 117 120 120 112 100
134 131 131 129 127 128 129 128 124 122 123 124 120 115 107 100 99 104 108 111 117 119 117 112 109 108 104 99 95 90 86 86 89 94 97 96 95 94 92 89 87 86 87 88 91 96 100 106 109 111 112 111 106 98 88 78 70 64 65 67 72 78 86 88 79 71 71 74 75 74 77 81 84 89 93 95 97 101 107 113 118 119 118 112 106
133 128 129 128 126 127 126 122 119 121 124 123 117 111 105 104 106 109 112 116 121 122 117 113 113 111 107 102 96 90 86 85 89 91 91 90 89 88 85 83 82 82 83 86 88 92 95 98 100 103 104 106 104 99 93 84 76 70 69 72 77 85 94 92 82 79 77 77 80 80 83 89 92 95 99 102 104 109 113 117 120 121 120 116 110
131 128 130 128 125 122 118 117 119 122 123 120 114 110 108 107 109 113 118 124 126 124 119 117 117 112 107 102 95 88 84 85 87 87 86 86 85 84 83 81 81 82 83 85 87 88 88 87 87 87 89 90 94 96 96 92 86 77 74 77 82 90 99 96 86 84 80 80 85 87 91 93 95 99 101 105 109 114 118 120 123 122 121 116 108
132 131 132 128 122 116 115 117 121 121 120 116 113 112 110 110 113 119 124 128 128 125 123 121 117 112 107 101 94 88 86 86 85 83 83 83 82 82 82 81 82 82 83 84 84 84 81 77 75 75 76 78 84 92 98 101 100 91 82 83 88 94 101 99 92 91 87 86 88 90 93 94 97 100 102 107 113 117 120 125 126 122 121 116 110
135 132 131 125 117 115 117 118 118 117 115 112 113 113 112 114 118 121 125 126 127 126 124 121 117 112 107 100 95 92 90 87 84 82 81 81 80 79 79 79 81 82 84 85 84 81 77 73 72 71 74 79 85 93 101 105 108 105 94 89 93 98 101 101 98 98 96 94 93 92 93 95 98 101 104 109 113 117 120 123 121 117 117 111 108
136 130 128 122 115 116 118 116 115 113 112 110 112 113 112 116 118 117 119 123 125 126 124 121 118 114 107 104 100 97 94 88 83 81 79 77 76 77 79 82 85 88 88 88 85 80 75 73 72 72 76 82 88 94 100 105 109 105 98 95 98 101 103 103 103 102 103 104 102 99 97 98 100 103 106 110 113 115 116 119 117 111 111 107 101
135 124 124 119 114 115 116 113 112 112 111 110 112 112 114 117 115 113 115 120 124 125 125 123 120 115 112 109 106 101 94 87 82 80 78 76 76 78 82 88 91 93 93 90 87 82 79 77 75 76 79 83 87 90 94 102 109 106 102 100 99 100 103 109 110 110 111 111 111 108 104 102 103 105 108 109 112 114 114 117 116 110 107 101 89
132 121 120 116 113 114 113 112 112 113 111 111 113 114 118 117 112 111 113 117 123 127 127 126 122 119 117 113 108 101 94 89 85 82 80 79 79 80 83 89 93 94 95 93 91 87 85 82 81 80 82 85 87 89 91 95 102 105 104 102 100 101 107 113 115 117 119 119 120 116 111 109 108 110 111 110 110 112 110 105 99 97 90 79 69
131 120 117 113 111 113 111 112 114 114 113 112 116 119 119 114 111 111 114 118 125 129 129 128 125 124 120 115 108 101 96 93 92 89 86 85 85 86 89 92 94 95 95 95 93 90 88 87 87 87 88 89 90 89 89 90 92 98 103 104 105 107 111 117 120 121 122 123 126 123 119 116 117 118 115 112 110 109 107 99 88 81 74 66 59
134 122 116 113 112 111 109 113 116 115 114 116 120 120 117 113 113 114 117 123 128 130 131 130 129 128 123 117 110 103 100 100 99 97 94 93 93 94 95 96 96 94 92 92 91 90 90 91 91 91 91 89 89 87 86 85 85 92 101 107 113 117 117 120 126 123 121 123 127 128 126 125 128 126 120 116 112 109 108 106 100 90 80 72 64
133 123 116 115 113 112 111 116 118 116 117 120 122 118 116 116 117 121 123 128 130 130 131 132 131 130 126 120 113 109 108 107 106 103 101 99 97 98 97 96 95 93 90 88 87 86 86 87 88 88 86 83 81 80 78 77 79 87 98 107 120 134 133 128 128 126 122 121 122 124 129 133 135 130 123 120 116 113 111 109 105 97 85 71 57
130 122 120 118 116 116 117 121 120 119 121 123 122 117 117 120 125 127 129 130 130 129 131 133 134 133 129 123 117 115 114 112 110 108 105 102 100 98 96 95 94 93 90 87 84 81 80 80 81 82 81 77 74 74 73 72 73 79 91 101 113 131 144 142 134 127 121 115 113 115 123 133 136 130 124 121 116 113 107 99 90 80 66 51 40
129 122 123 122 120 120 121 125 124 123 125 126 122 118 120 126 132 133 132 130 127 128 132 134 136 135 130 124 121 119 117 115 113 111 108 104 101 98 96 95 94 93 90 88 84 81 79 77 76 76 76 75 72 71 72 72 73 75 83 93 103 115 137 149 143 132 120 110 106 107 112 119 123 124 125 124 118 112 104 92 80 66 49 37 28
133 125 126 125 123 121 123 128 127 127 128 128 123 120 125 132 139 138 134 130 128 130 134 137 137 134 129 125 123 121 119 117 115 113 109 105 101 99 98 96 93 92 90 88 85 82 79 76 75 74 74 75 73 71 71 74 76 77 80 87 95 102 114 132 141 138 127 118 114 112 109 106 109 115 121 125 124 119 117 115 107 78 43 26 19
138 129 128 126 125 121 125 129 128 129 131 129 125 124 127 136 142 138 134 131 131 134 136 137 135 131 127 125 122 120 118 117 116 112 108 104 101 98 95 93 92 91 89 86 83 80 78 76 74 73 74 75 75 73 72 73 76 78 80 83 87 91 95 104 118 127 133 137 136 130 120 112 109 109 111 111 110 108 108 110 102 76 38 17 15
143 136 132 128 125 123 128 131 130 132 134 131 127 126 129 139 141 135 132 131 131 133 134 134 131 128 125 123 120 117 116 116 113 109 105 101 98 96 93 92 90 88 85 82 79 77 77 76 74 73 72 73 74 74 72 73 75 77 81 84 84 86 90 93 98 107 120 133 137 134 128 122 115 110 104 101 98 98 100 98 86 74 56 42 43
149 141 137 133 128 127 133 133 134 136 136 132 128 127 131 140 138 131 130 128 128 130 131 131 129 127 123 121 118 116 115 113 110 107 103 100 96 93 90 88 85 82 80 78 77 76 75 75 75 74 71 70 73 75 74 72 74 76 80 84 86 87 89 91 92 95 104 113 121 125 124 121 118 114 110 104 99 97 98 97 91 81 70 66 65
154 149 141 137 133 133 136 135 136 139 137 133 129 129 133 140 135 129 127 125 126 128 129 129 127 124 120 118 116 115 113 111 109 105 102 99 96 93 89 86 82 79 77 76 75 74 74 73 74 74 72 69 70 74 75 73 74 76 78 81 83 85 87 88 88 87 91 100 108 115 119 120 120 121 121 120 112 101 94 92 90 83 75 69 66
160 158 149 140 138 138 139 139 140 141 139 133 130 130 135 138 133 128 126 124 126 127 126 125 122 119 118 116 114 112 110 109 106 103 101 99 95 91 88 86 84 81 77 74 72 73 74 72 71 72 73 73 71 72 74 73 74 74 75 77 78 82 85 85 85 84 85 90 97 105 109 112 114 119 124 127 127 118 106 96 89 82 77 73 67
166 165 155 144 142 143 143 142 142 143 140 135 131 133 136 136 132 127 125 125 126 125 123 120 118 117 116 115 112 110 108 107 104 101 100 97 93 88 85 83 81 80 78 74 71 72 73 72 70 68 71 76 77 77 76 75 73 74 74 74 76 81 84 84 83 84 85 87 92 98 103 104 107 114 121 127 133 138 130 117 100 85 72 65 58
166 167 157 149 147 147 147 144 144 145 141 136 134 135 136 134 131 127 125 124 124 122 120 118 118 117 116 114 113 111 108 106 104 100 97 93 89 85 82 80 78 78 78 74 70 71 74 73 71 70 70 76 83 86 84 81 77 76 76 76 77 79 81 81 81 83 85 88 91 96 100 101 102 105 110 117 123 128 128 118 103 84 68 56 51
166 167 157 153 153 149 148 147 144 145 142 136 135 136 135 133 130 127 126 125 124 121 120 120 120 119 116 115 115 111 107 106 101 96 92 88 85 82 80 78 77 78 76 73 71 72 76 76 77 80 79 77 81 87 89 89 86 82 81 82 81 80 81 83 84 85 86 88 91 93 95 95 93 92 94 98 100 101 100 94 84 76 68 60 57
168 167 157 156 157 152 149 148 146 146 142 138 137 137 135 133 130 128 128 128 126 124 123 125 124 121 119 118 117 109 104 103 98 93 90 86 83 81 80 77 76 78 74 70 71 74 76 77 81 88 92 89 84 85 87 91 95 93 87 86 86 85 86 88 87 87 86 87 90 89 88 88 87 84 83 84 86 87 84 80 75 72 70 67 64
172 166 159 160 159 156 152 148 148 148 145 141 139 138 136 135 133 130 129 129 127 126 127 130 128 125 123 121 116 109 104 101 96 92 88 85 83 81 79 77 76 74 70 67 68 73 77 75 75 84 93 99 99 94 89 90 98 99 91 87 89 89 88 89 88 86 85 85 87 86 84 83 82 81 78 78 80 81 81 80 77 74 72 72 70
177 169 162 163 160 158 156 150 149 150 147 143 141 140 138 137 136 133 131 131 129 129 131 132 130 127 126 121 115 109 105 101 96 92 89 86 83 79 75 73 71 67 63 63 65 67 74 76 75 79 85 95 101 101 98 92 90 93 96 94 92 90 89 88 87 86 84 83 84 84 83 81 80 80 79 77 78 79 80 81 80 77 73 73 73
178 174 165 166 162 159 159 154 152 152 150 146 143 142 140 139 138 136 134 133 133 134 134 133 129 126 125 120 114 109 106 101 96 93 88 83 79 75 70 67 63 63 63 64 67 68 70 74 76 77 78 87 98 104 106 103 93 92 102 103 97 95 93 90 88 87 84 81 81 83 83 83 81 81 80 79 79 80 81 82 81 78 73 71 72
172 175 167 166 165 161 160 159 156 155 152 149 146 144 142 141 140 138 136 135 134 136 136 132 128 127 124 119 114 109 105 100 95 93 88 81 77 73 66 61 59 61 64 64 68 71 71 72 75 77 79 86 95 100 107 109 108 116 117 112 109 104 100 94 91 89 88 83 80 82 83 84 84 84 84 83 82 82 83 83 81 78 74 71 71
172 177 168 166 168 164 162 162 159 158 155 152 150 146 145 144 142 140 137 135 135 135 135 131 129 126 122 119 115 109 104 100 97 95 90 84 78 75 68 62 60 58 59 59 61 66 70 73 77 79 81 86 90 92 96 101 108 134 127 115 112 105 100 96 93 90 87 85 83 83 85 86 87 88 88 88 86 84 83 81 78 76 75 75 76
174 177 170 166 171 169 166 165 162 159 158 155 153 149 148 147 144 142 140 137 135 134 132 129 127 125 120 117 114 109 105 103 102 99 92 87 81 78 73 66 59 56 58 59 59 60 65 70 78 81 80 86 90 88 88 92 102 130 119 110 110 107 103 99 95 90 86 85 85 85 86 88 89 90 90 89 88 85 82 80 78 77 77 79 81
179 177 172 168 171 173 169 168 164 161 160 158 156 153 152 149 146 145 143 140 136 133 130 126 125 123 118 116 113 110 109 109 107 101 95 92 87 79 72 64 55 52 54 59 61 60 62 63 65 72 75 80 84 84 86 93 107 124 123 117 118 112 103 99 97 94 89 86 87 87 86 87 90 92 92 91 89 87 85 83 80 79 80 81 83
189 182 175 169 170 174 173 171 167 163 163 162 159 158 156 152 149 146 144 141 137 133 129 125 124 123 121 117 115 115 116 117 112 105 101 96 90 79 66 57 51 49 52 59 63 61 63 62 61 64 68 72 74 78 90 103 112 116 112 112 114 110 100 100 102 99 94 88 88 90 90 89 91 93 93 92 92 91 89 85 83 81 82 84 85
198 188 180 171 170 175 175 172 168 166 166 166 163 161 158 154 149 146 143 141 138 135 132 128 126 126 125 122 119 119 121 121 116 108 102 97 91 80 64 50 47 51 56 64 68 68 68 68 67 67 66 66 69 82 105 114 112 112 105 100 107 113 113 111 107 101 98 96 91 91 92 93 94 95 93 92 93 92 89 85 83 80 79 79 80
204 194 187 177 173 175 175 174 171 169 169 168 166 163 160 156 149 146 144 141 139 137 134 131 130 130 128 127 126 124 123 122 118 110 104 102 94 81 65 50 49 55 61 66 68 69 70 69 69 69 69 69 73 85 102 107 105 106 102 94 92 99 110 115 111 105 105 105 102 99 98 98 100 101 97 94 94 90 86 84 80 77 74 73 71
211 200 193 184 177 176 177 175 172 169 170 171 169 166 162 157 151 148 146 143 140 139 137 134 134 134 133 132 130 128 128 124 117 110 106 100 89 79 66 55 54 60 66 68 67 68 70 70 68 70 73 75 76 81 90 95 97 100 100 94 86 85 93 103 108 112 110 105 104 104 105 105 104 101 99 98 95 89 85 82 77 74 72 69 65
215 206 198 190 181 178 179 177 171 168 171 173 170 168 164 157 152 150 149 145 144 142 140 138 138 139 138 136 134 132 131 123 113 105 99 92 85 79 69 62 61 66 72 74 73 72 72 71 67 68 71 73 75 77 80 84 87 92 93 90 87 84 85 88 94 102 106 108 109 108 107 107 103 101 100 99 93 90 88 84 82 79 73 66 59
210 205 201 194 185 181 180 179 173 168 170 173 171 168 164 159 155 154 154 151 148 148 146 144 145 146 144 142 140 139 133 120 108 98 92 88 86 82 71 66 67 72 79 82 80 77 74 72 68 66 66 68 71 73 74 75 78 81 83 82 82 86 89 87 89 96 104 110 113 113 112 109 105 103 102 101 101 97 89 85 85 82 77 69 60
202 200 201 198 189 183 181 180 175 170 170 173 172 170 168 164 160 160 160 156 153 153 154 153 153 153 151 148 146 142 133 117 104 95 90 88 88 81 70 66 68 74 83 86 85 82 78 74 70 67 66 67 67 69 72 74 74 75 76 77 78 83 91 93 94 99 104 106 107 112 115 114 109 104 104 107 108 103 96 92 88 85 79 69 59
197 196 200 200 194 187 183 180 176 173 174 176 176 173 171 168 164 163 163 160 158 160 161 161 159 158 157 153 148 142 131 117 105 94 90 89 86 80 69 64 66 72 81 87 86 82 79 76 73 68 65 65 66 67 70 73 73 72 73 74 75 78 83 87 91 94 100 103 106 109 108 108 108 106 107 107 104 102 100 98 93 85 73 59 48
195 193 194 197 197 193 186 180 178 178 178 179 180 177 174 170 164 162 164 163 162 165 166 165 164 162 161 156 149 144 133 121 111 100 93 89 84 79 70 65 65 66 73 82 83 76 73 72 68 63 60 60 62 63 64 68 69 69 70 73 74 74 77 80 84 87 90 93 99 103 104 105 107 108 107 105 104 104 103 101 94 80 62 47 39
194 190 191 193 198 200 191 183 181 182 181 182 182 179 174 170 164 161 163 164 165 169 170 169 168 166 164 160 153 148 140 129 121 111 101 92 86 81 75 69 67 67 68 75 80 76 70 65 60 56 56 56 58 59 59 63 64 64 66 71 72 73 74 76 79 84 85 84 85 88 93 95 97 99 100 99 100 99 97 93 86 76 55 37 31
191 187 189 190 197 204 198 188 185 184 183 184 182 177 171 167 162 158 160 165 168 173 174 171 171 170 167 166 161 156 150 142 133 119 105 94 89 86 80 73 69 69 68 69 74 76 71 65 59 57 58 60 60 59 59 59 60 59 62 68 71 72 74 72 70 74 79 80 77 72 69 70 71 75 80 83 85 86 83 78 73 63 39 20 15
195 189 188 189 194 203 202 194 189 187 185 183 180 175 171 169 166 164 168 173 174 174 175 173 173 172 171 171 169 167 163 155 143 126 110 97 88 84 79 75 71 70 70 67 67 70 70 66 60 60 62 62 60 59 59 60 60 59 58 65 72 74 75 73 67 63 65 70 73 71 64 60 58 58 59 62 67 68 62 56 53 38 20 10 2
205 195 191 191 192 198 204 200 193 190 188 183 180 177 174 175 176 176 179 180 174 171 173 173 174 174 176 179 178 177 172 159 151 141 123 101 83 76 73 72 70 69 69 67 62 61 64 64 61 61 63 63 62 59 58 59 59 58 57 58 67 72 71 71 68 62 56 55 61 64 62 57 53 50 46 42 43 47 47 44 32 9 0 2 356
213 204 195 192 191 195 203 204 198 194 190 184 182 180 179 181 183 185 184 180 173 170 173 176 178 180 183 186 185 182 174 163 162 165 142 108 80 65 60 59 60 61 64 64 60 55 55 58 60 62 64 64 63 59 55 54 55 55 54 53 57 64 68 70 70 68 63 59 58 59 56 52 48 46 39 28 22 20 17 8 356 349 351 360 356
213 207 198 193 191 193 200 203 200 197 192 188 187 185 184 186 188 188 184 178 174 171 175 182 184 186 189 190 189 184 176 172 176 181 167 119 88 63 46 40 40 46 52 55 54 50 47 48 50 52 58 62 62 61 56 51 51 51 51 51 52 57 62 64 66 66 64 61 59 58 56 50 46 45 38 28 20 12 3 354 353 358 3 6 0
212 207 198 193 191 191 197 201 200 199 195 192 191 188 187 189 192 192 185 178 176 175 179 186 188 190 193 193 192 188 182 183 190 191 186 148 95 60 33 20 18 27 40 46 47 43 38 36 35 34 42 50 57 61 58 53 50 47 48 50 52 55 58 60 59 57 54 50 49 49 49 45 39 38 37 29 22 18 14 11 9 8 5 3 359
211 208 198 193 192 190 194 200 201 200 198 195 194 191 189 191 194 194 187 180 179 180 183 186 187 187 191 194 192 191 191 195 202 199 192 179 117 52 16 6 0 5 22 34 40 42 37 31 26 18 19 26 37 49 53 52 50 46 45 47 49 52 57 60 57 51 44 39 34 30 31 31 26 26 27 21 14 14 14 12 8 3 356 353 350
Height
5904 5904 5904 5904 5905 5904 5904 5904 5905 5905 5905 5906 5906 5906 5906 5906 5907 5907 5907 5908 5908 5909 5909 5909 5909 5909 5910 5910 5910 5910 5911 5911 5911 5911 5911 5911 5911 5911 5910 5910 5910 5910 5910 5911 5912 5912 5912 5912 5912 5912 5913 5913 5913 5913 5913 5913 5913 5912 5913 5913 5913 5912 5912 5912 5912 5911 5911 5911 5911 5911 5911 5911 5911 5911 5912 5912 5912 5913 5913 5914 5914 5915 5915 5916 5917
5904 5904 5905 5905 5905 5905 5905 5905 5906 5906 5906 5906 5906 5906 5907 5907 5907 5907 5907 5908 5909 5909 5910 5910 5910 5910 5910 5910 5911 5911 5912 5912 5912 5912 5912 5912 5912 5912 5912 5911 5911 5911 5912 5912 5912 5912 5912 5912 5912 5913 5913 5913 5913 5913 5913 5913 5913 5913 5913 5913 5913 5913 5912 5912 5912 5912 5911 5911 5911 5912 5911 5911 5911 5911 5912 5912 5913 5913 5913 5914 5914 5915 5916 5917 5918
5905 5905 5905 5905 5905 5905 5906 5906 5906 5907 5907 5907 5907 5907 5907 5907 5907 5907 5908 5908 5909 5910 5910 5910 5910 5910 5910 5911 5911 5912 5912 5912 5912 5912 5913 5913 5913 5912 5912 5912 5912 5912 5913 5913 5913 5913 5913 5913 5913 5913 5913 5913 5913 5913 5913 5913 5913 5913 5913 5913 5913 5913 5913 5913 5912 5912 5912 5912 5912 5912 5912 5911 5911 5912 5912 5912 5913 5913 5913 5914 5915 5916 5916 5917 5918
5906 5906 5906 5906 5906 5906 5906 5907 5907 5907 5907 5908 5908 5908 5908 5908 5907 5908 5908 5909 5909 5910 5910 5910 5910 5911 5911 5911 5912 5912 5912 5913 5913 5913 5913 5913 5913 5913 5912 5912 5912 5913 5913 5913 5913 5913 5913 5913 5913 5913 5913 5913 5913 5913 5912 5912 5912 5913 5913 5913 5913 5913 5913 5913 5913 5913 5912 5912 5912 5912 5912 5912 5912 5912 5912 5912 5913 5913 5914 5914 5915 5916 5917 5917 5918
5907 5907 5907 5907 5907 5907 5907 5907 5907 5908 5908 5908 5908 5908 5908 5908 5908 5908 5908 5909 5910 5910 5911 5911 5911 5912 5912 5912 5913 5913 5913 5913 5914 5914 5913 5913 5913 5913 5913 5913 5913 5913 5913 5913 5914 5914 5914 5913 5913 5913 5913 5913 5913 5913 5912 5912 5913 5913 5913 5913 5913 5913 5913 5913 5913 5913 5913 5913 5913 5913 5913 5913 5913 5913 5913 5913 5913 5914 5914 5915 5915 5916 5917 5918 5918
5908 5907 5907 5907 5907 5908 5908 5908 5908 5908 5908 5909 5909 5909 5909 5909 5909 5909 5909 5910 5911 5911 5911 5912 5912 5913 5913 5913 5914 5914 5914 5914 5914 5914 5914 5913 5913 5913 5913 5913 5913 5913 5913 5914 5914 5914 5914 5913 5913 5913 5913 5913 5913 5913 5913 5913 5913 5913 5913 5913 5913 5913 5913 5913 5913 5913 5913 5913 5913 5913 5913 5913 5913 5914 5913 5913 5914 5915 5915 5916 5916 5917 5917 5919 5920
5908 5908 5908 5908 5908 5908 5908 5909 5909 5909 5909 5909 5910 5910 5910 5910 5910 5910 5911 5911 5912 5912 5912 5913 5913 5914 5914 5914 5914 5915 5915 5915 5915 5914 5914 5914 5914 5913 5913 5913 5913 5914 5914 5914 5915 5914 5914 5913 5913 5913 5913 5913 5913 5913 5913 5913 5913 5913 5913 5913 5914 5914 5914 5914 5914 5914 5914 5914 5914 5914 5914 5914 5914 5915 5915 5915 5915 5915 5916 5917 5917 5918 5918 5919 5921
5909 5909 5909 5909 5909 5909 5909 5909 5910 5910 5910 5910 5910 5911 5911 5911 5911 5911 5912 5912 5912 5913 5913 5914 5914 5915 5915 5915 5915 5915 5916 5915 5915 5915 5915 5915 5914 5914 5914 5914 5914 5915 5915 5915 5915 5914 5914 5914 5914 5914 5913 5913 5913 5913 5913 5913 5913 5913 5913 5914 5914 5914 5914 5914 5914 5914 5914 5914 5914 5914 5915 5915 5915 5915 5916 5916 5916 5916 5917 5918 5918 5919 5920 5920 5921
5910 5909 5909 5909 5909 5909 5910 5910 5911 5911 5911 5911 5911 5911 5911 5911 5912 5912 5912 5913 5913 5914 5914 5915 5915 5916 5916 5916 5916 5916 5917 5916 5916 5916 5916 5915 5915 5915 5915 5915 5915 5915 5915 5915 5915 5915 5915 5914 5914 5914 5914 5914 5913 5913 5914 5913 5913 5913 5913 5914 5914 5914 5914 5914 5914 5914 5915 5915 5915 5915 5915 5915 5916 5916 5917 5917 5917 5917 5917 5918 5919 5919 5921 5921 5922
5911 5910 5910 5910 5910 5910 5911 5911 5911 5912 5912 5912 5912 5912 5912 5912 5912 5913 5913 5913 5914 5915 5915 5916 5916 5917 5917 5917 5917 5917 5918 5917 5917 5917 5917 5916 5916 5916 5916 5916 5916 5916 5916 5916 5916 5916 5915 5915 5915 5915 5915 5914 5914 5914 5914 5914 5913 5913 5914 5914 5914 5914 5914 5914 5915 5915 5915 5915 5915 5916 5916 5916 5917 5917 5917 5918 5918 5918 5917 5917 5919 5920 5921 5922 5922
5911 5911 5911 5911 5911 5911 5911 5912 5912 5912 5913 5913 5913 5913 5913 5913 5913 5913 5914 5914 5915 5916 5916 5917 5917 5917 5918 5918 5918 5918 5918 5918 5918 5918 5918 5917 5917 5917 5917 5917 5917 5917 5917 5917 5917 5916 5916 5916 5916 5916 5915 5915 5915 5914 5914 5914 5914 5914 5914 5914 5915 5915 5915 5915 5915 5915 5915 5916 5916 5917 5917 5917 5917 5918 5918 5919 5919 5918 5917 5918 5920 5921 5922 5922 5922
5912 5912 5912 5911 5911 5912 5912 5912 5913 5913 5913 5914 5913 5913 5914 5914 5914 5914 5914 5915 5916 5917 5917 5918 5918 5918 5919 5919 5919 5919 5919 5919 5919 5919 5919 5918 5918 5918 5918 5918 5917 5917 5917 5917 5917 5917 5917 5917 5917 5916 5916 5916 5915 5915 5915 5915 5914 5915 5915 5915 5915 5915 5915 5915 5915 5916 5916 5916 5917 5917 5917 5918 5918 5919 5919 5920 5920 5919 5919 5919 5920 5920 5921 5921 5921
5912 5912 5912 5912 5912 5912 5913 5913 5914 5914 5914 5914 5914 5914 5915 5915 5915 5915 5915 5916 5917 5918 5918 5918 5919 5919 5920 5920 5920 5920 5920 5920 5920 5920 5920 5919 5919 5919 5919 5919 5919 5918 5918 5918 5918 5918 5918 5918 5918 5917 5917 5916 5916 5916 5916 5916 5915 5915 5915 5916 5916 5916 5916 5916 5916 5916 5916 5917 5917 5918 5918 5919 5919 5920 5920 5920 5920 5920 5920 5920 5920 5920 5921 5921 5922
5912 5913 5912 5912 5913 5913 5913 5914 5914 5914 5915 5915 5915 5915 5915 5915 5916 5916 5916 5917 5918 5919 5919 5919 5920 5920 5921 5921 5921 5921 5921 5921 5921 5921 5921 5921 5920 5920 5920 5920 5920 5920 5920 5920 5919 5919 5919 5919 5919 5918 5918 5917 5917 5917 5916 5916 5916 5915 5916 5916 5916 5917 5917 5916 5917 5917 5917 5918 5918 5918 5919 5919 5920 5920 5920 5921 5921 5921 5921 5921 5921 5922 5922 5923 5923
5912 5912 5913 5913 5913 5914 5914 5915 5915 5915 5915 5916 5916 5916 5916 5916 5917 5917 5917 5918 5919 5919 5920 5920 5921 5921 5921 5922 5922 5922 5921 5922 5922 5922 5922 5922 5922 5922 5922 5922 5922 5921 5921 5921 5921 5921 5921 5921 5920 5920 5919 5918 5918 5918 5917 5917 5917 5916 5916 5916 5917 5917 5917 5917 5917 5918 5918 5919 5919 5919 5919 5920 5920 5920 5920 5921 5921 5922 5922 5922 5922 5923 5923 5924 5924
5912 5912 5913 5913 5914 5914 5915 5915 5915 5916 5916 5916 5916 5917 5917 5917 5918 5918 5918 5919 5919 5920 5920 5921 5922 5922 5922 5922 5922 5922 5922 5923 5923 5923 5924 5924 5924 5924 5924 5924 5923 5923 5923 5923 5923 5923 5923 5922 5922 5921 5921 5920 5919 5919 5919 5918 5918 5917 5916 5917 5917 5917 5917 5918 5918 5919 5919 5919 5919 5920 5920 5921 5921 5921 5921 5921 5922 5922 5923 5923 5923 5924 5924 5924 5924
5913 5913 5913 5914 5914 5915 5915 5916 5916 5916 5916 5917 5917 5917 5918 5918 5919 5919 5919 5920 5920 5921 5921 5922 5922 5922 5923 5923 5923 5923 5923 5924 5925 5925 5925 5925 5925 5926 5926 5925 5925 5925 5925 5924 5924 5924 5924 5923 5923 5923 5922 5922 5921 5920 5920 5919 5919 5918 5917 5917 5917 5917 5918 5918 5919 5919 5919 5920 5920 5920 5921 5921 5921 5921 5921 5922 5922 5922 5923 5923 5924 5924 5924 5924 5925
5914 5914 5914 5914 5915 5915 5915 5916 5916 5917 5917 5917 5917 5918 5919 5919 5920 5920 5920 5920 5920 5921 5922 5922 5923 5923 5924 5924 5924 5924 5925 5925 5926 5926 5926 5927 5927 5927 5927 5927 5927 5926 5926 5926 5926 5925 5925 5925 5924 5924 5924 5923 5922 5922 5921 5921 5920 5919 5918 5918 5918 5918 5919 5919 5919 5919 5920 5920 5921 5921 5921 5921 5922 5922 5922 5922 5922 5923 5923 5923 5924 5924 5924 5924 5925
5914 5914 5915 5915 5915 5915 5916 5916 5917 5917 5918 5918 5918 5919 5919 5920 5920 5920 5920 5921 5921 5922 5923 5923 5924 5924 5925 5925 5925 5926 5926 5927 5927 5928 5928 5928 5928 5928 5928 5928 5928 5928 5927 5927 5927 5927 5926 5926 5925 5925 5925 5924 5924 5923 5923 5923 5922 5921 5920 5919 5919 5919 5919 5919 5919 5919 5920 5920 5921 5921 5922 5922 5922 5922 5922 5922 5923 5923 5923 5924 5924 5925 5925 5925 5925
5914 5915 5915 5915 5916 5916 5916 5917 5917 5918 5918 5918 5919 5919 5920 5921 5921 5920 5921 5921 5922 5923 5923 5924 5925 5925 5926 5926 5927 5927 5928 5928 5929 5929 5929 5930 5930 5930 5929 5929 5929 5929 5928 5928 5928 5928 5927 5927 5926 5926 5925 5925 5925 5924 5924 5924 5923 5922 5922 5920 5920 5920 5920 5920 5920 5920 5920 5921 5921 5922 5922 5922 5923 5923 5923 5923 5923 5923 5924 5924 5924 5925 5925 5925 5925
5915 5915 5915 5916 5916 5916 5917 5917 5918 5918 5919 5919 5919 5920 5921 5921 5921 5921 5921 5922 5923 5924 5924 5925 5926 5926 5927 5928 5928 5929 5930 5930 5930 5931 5931 5931 5931 5931 5931 5930 5930 5930 5929 5929 5929 5928 5928 5928 5927 5927 5926 5926 5926 5926 5925 5925 5924 5923 5923 5922 5921 5921 5922 5921 5921 5921 5921 5921 5921 5922 5922 5923 5923 5923 5923 5923 5923 5924 5924 5924 5925 5925 5925 5925 5925
5915 5915 5916 5916 5916 5917 5917 5918 5918 5919 5919 5919 5920 5920 5921 5922 5922 5922 5922 5923 5924 5925 5925 5926 5927 5927 5928 5929 5930 5931 5931 5932 5932 5932 5932 5932 5932 5932 5932 5931 5931 5931 5930 5930 5929 5929 5929 5929 5929 5928 5927 5927 5927 5927 5926 5926 5925 5925 5924 5923 5923 5923 5923 5922 5922 5922 5922 5922 5922 5922 5923 5923 5923 5924 5924 5924 5924 5924 5925 5925 5925 5925 5925 5926 5926
5915 5916 5916 5917 5917 5917 5918 5918 5919 5919 5920 5920 5920 5921 5922 5923 5923 5922 5923 5924 5925 5926 5927 5927 5928 5929 5930 5931 5931 5932 5933 5933 5933 5934 5934 5934 5934 5933 5933 5932 5932 5932 5931 5931 5930 5930 5930 5930 5930 5929 5929 5928 5928 5928 5927 5927 5926 5926 5925 5924 5924 5924 5924 5924 5923 5923 5923 5923 5923 5923 5923 5924 5924 5924 5924 5925 5925 5925 5926 5926 5926 5926 5926 5926 5926
5915 5916 5916 5917 5917 5918 5918 5919 5919 5920 5920 5920 5921 5922 5923 5923 5924 5924 5924 5925 5926 5927 5928 5929 5930 5931 5932 5932 5933 5933 5934 5934 5935 5935 5935 5935 5935 5934 5934 5933 5933 5933 5932 5932 5931 5931 5931 5931 5931 5930 5930 5929 5929 5928 5928 5928 5927 5927 5926 5925 5925 5925 5925 5925 5924 5924 5924 5924 5924 5924 5924 5924 5924 5924 5925 5925 5926 5926 5926 5927 5927 5927 5927 5927 5926
5915 5916 5917 5917 5918 5918 5919 5919 5920 5920 5921 5921 5922 5922 5923 5924 5925 5925 5925 5926 5927 5928 5929 5930 5931 5932 5933 5934 5934 5935 5935 5936 5936 5936 5936 5936 5935 5935 5935 5934 5934 5933 5933 5933 5932 5932 5932 5932 5931 5931 5931 5930 5930 5929 5929 5929 5928 5928 5927 5927 5927 5926 5926 5926 5925 5925 5925 5925 5925 5925 5925 5925 5925 5925 5926 5926 5926 5927 5927 5927 5927 5928 5927 5927 5927
5916 5916 5917 5918 5918 5918 5919 5920 5920 5921 5921 5922 5922 5923 5924 5925 5926 5926 5926 5927 5928 5929 5930 5932 5933 5934 5934 5935 5935 5936 5936 5937 5937 5937 5936 5936 5936 5936 5936 5935 5935 5934 5934 5934 5933 5933 5933 5933 5932 5932 5931 5931 5931 5930 5929 5929 5929 5929 5929 5928 5928 5928 5927 5927 5927 5927 5926 5927 5927 5926 5926 5926 5926 5926 5926 5927 5927 5927 5928 5928 5928 5928 5928 5928 5927
5916 5917 5917 5918 5918 5919 5920 5920 5920 5921 5921 5922 5923 5924 5925 5926 5927 5927 5928 5929 5930 5931 5932 5933 5934 5935 5935 5936 5937 5937 5937 5937 5937 5937 5937 5937 5937 5937 5936 5936 5936 5935 5935 5934 5934 5934 5934 5933 5933 5932 5932 5932 5932 5931 5930 5930 5930 5931 5930 5930 5929 5929 5929 5928 5928 5928 5928 5928 5928 5927 5927 5927 5927 5927 5927 5927 5928 5928 5928 5929 5929 5929 5929 5928 5928
5916 5917 5917 5918 5919 5919 5920 5920 5921 5921 5922 5923 5923 5924 5925 5927 5928 5928 5929 5930 5931 5932 5933 5934 5935 5936 5936 5937 5937 5937 5937 5938 5938 5938 5938 5937 5937 5937 5937 5937 5937 5936 5936 5935 5935 5935 5934 5934 5934 5933 5933 5933 5933 5932 5932 5931 5931 5931 5930 5931 5930 5930 5930 5930 5929 5929 5929 5929 5929 5928 5928 5928 5928 5928 5928 5928 5928 5929 5929 5929 5930 5930 5929 5929 5929
5917 5917 5918 5918 5919 5920 5920 5921 5921 5922 5922 5923 5924 5925 5926 5928 5929 5929 5930 5931 5932 5933 5934 5935 5936 5937 5937 5938 5938 5938 5938 5938 5938 5938 5938 5938 5938 5938 5938 5938 5937 5937 5937 5936 5936 5936 5935 5935 5935 5934 5934 5934 5934 5933 5933 5932 5931 5931 5931 5932 5931 5931 5931 5931 5930 5930 5930 5930 5930 5929 5929 5929 5929 5929 5929 5929 5930 5930 5930 5930 5930 5930 5930 5930 5929
5917 5917 5918 5918 5919 5920 5921 5921 5921 5922 5923 5924 5924 5926 5927 5928 5930 5930 5931 5932 5933 5934 5935 5936 5937 5937 5938 5938 5938 5939 5939 5939 5939 5939 5939 5939 5938 5938 5938 5938 5938 5938 5938 5937 5937 5936 5936 5936 5935 5935 5934 5934 5934 5934 5934 5933 5932 5932 5933 5933 5932 5932 5932 5932 5931 5931 5931 5931 5931 5930 5930 5930 5931 5931 5930 5930 5931 5931 5931 5931 5931 5931 5931 5930 5930
5916 5917 5918 5919 5919 5920 5921 5922 5922 5922 5923 5924 5925 5926 5928 5929 5930 5931 5932 5933 5934 5935 5936 5937 5938 5938 5938 5939 5939 5939 5940 5939 5940 5940 5940 5940 5939 5939 5938 5938 5938 5938 5938 5938 5937 5937 5937 5936 5936 5936 5935 5935 5935 5935 5935 5934 5933 5933 5934 5934 5933 5933 5933 5932 5932 5932 5932 5932 5931 5931 5931 5931 5932 5932 5931 5931 5931 5931 5932 5932 5932 5932 5931 5931 5931
5916 5917 5918 5919 5919 5920 5921 5922 5922 5923 5924 5925 5926 5927 5928 5930 5931 5932 5932 5933 5934 5936 5936 5937 5938 5939 5939 5939 5940 5940 5940 5940 5941 5941 5941 5940 5940 5940 5939 5939 5939 5939 5938 5938 5938 5937 5937 5937 5937 5936 5936 5936 5936 5935 5935 5935 5934 5934 5935 5935 5934 5934 5934 5933 5933 5933 5933 5933 5932 5932 5932 5932 5932 5933 5932 5932 5932 5932 5932 5932 5932 5932 5932 5932 5931
5915 5917 5917 5918 5919 5920 5921 5922 5922 5923 5924 5925 5926 5928 5929 5930 5931 5932 5933 5934 5935 5936 5937 5938 5939 5939 5940 5940 5940 5941 5941 5942 5942 5942 5942 5941 5941 5941 5940 5940 5939 5939 5939 5938 5938 5938 5938 5937 5937 5937 5937 5937 5936 5936 5936 5935 5935 5935 5935 5935 5935 5934 5934 5934 5934 5934 5934 5934 5933 5933 5934 5934 5934 5933 5933 5933 5933 5933 5933 5933 5933 5933 5932 5932 5931
5915 5916 5917 5918 5919 5920 5921 5922 5923 5923 5924 5925 5927 5928 5929 5931 5932 5933 5934 5935 5936 5936 5937 5939 5939 5940 5940 5941 5941 5942 5943 5943 5943 5943 5942 5942 5942 5942 5941 5940 5940 5939 5939 5938 5938 5938 5938 5938 5937 5937 5937 5937 5936 5935 5936 5936 5936 5935 5934 5935 5935 5935 5935 5935 5934 5934 5934 5935 5934 5934 5935 5935 5935 5934 5934 5934 5934 5933 5933 5933 5933 5933 5933 5932 5932
5915 5916 5917 5917 5918 5920 5921 5922 5923 5923 5924 5926 5927 5929 5930 5931 5932 5933 5934 5935 5936 5937 5938 5939 5940 5941 5941 5942 5942 5943 5944 5944 5944 5944 5943 5943 5943 5943 5942 5941 5940 5939 5939 5938 5938 5938 5938 5938 5938 5938 5937 5936 5935 5935 5936 5937 5937 5936 5934 5935 5935 5935 5935 5935 5935 5935 5935 5935 5935 5935 5936 5936 5936 5935 5935 5934 5934 5934 5934 5934 5934 5934 5933 5933 5932
5914 5915 5916 5917 5918 5919 5920 5922 5923 5923 5924 5926 5927 5929 5930 5931 5932 5933 5935 5936 5936 5937 5939 5940 5941 5942 5942 5943 5943 5944 5945 5945 5945 5944 5944 5944 5944 5944 5943 5942 5941 5940 5939 5939 5939 5939 5939 5939 5939 5938 5937 5936 5935 5936 5936 5937 5937 5936 5935 5935 5935 5935 5935 5935 5935 5935 5935 5936 5936 5936 5936 5936 5936 5936 5935 5935 5935 5935 5934 5934 5934 5934 5934 5933 5933
5914 5914 5915 5916 5917 5918 5920 5921 5922 5923 5924 5926 5927 5929 5930 5932 5933 5934 5935 5936 5937 5938 5939 5940 5941 5942 5943 5944 5944 5945 5945 5945 5945 5945 5945 5945 5945 5944 5943 5943 5941 5940 5940 5939 5939 5940 5939 5939 5939 5939 5938 5937 5937 5938 5937 5937 5937 5936 5935 5935 5935 5935 5935 5935 5935 5935 5935 5936 5936 5936 5936 5936 5936 5936 5936 5935 5935 5935 5935 5935 5935 5935 5934 5934 5933
5913 5914 5915 5916 5917 5918 5919 5920 5922 5923 5924 5926 5927 5929 5930 5932 5933 5934 5935 5936 5937 5938 5940 5941 5942 5943 5943 5944 5945 5945 5946 5946 5946 5946 5946 5946 5945 5945 5944 5943 5942 5941 5940 5940 5940 5940 5940 5940 5940 5940 5940 5939 5939 5938 5938 5937 5937 5937 5936 5936 5935 5935 5935 5935 5935 5935 5936 5936 5936 5936 5936 5936 5936 5936 5936 5936 5936 5936 5936 5936 5935 5935 5935 5935 5934
5912 5913 5915 5916 5916 5917 5918 5920 5921 5923 5924 5926 5927 5929 5931 5932 5933 5934 5936 5936 5938 5939 5940 5941 5942 5943 5944 5945 5945 5946 5946 5946 5946 5946 5946 5946 5945 5945 5944 5944 5943 5942 5941 5941 5941 5941 5941 5941 5942 5941 5941 5940 5940 5939 5939 5938 5938 5938 5938 5937 5937 5936 5935 5935 5935 5936 5936 5936 5936 5936 5936 5936 5936 5936 5936 5936 5936 5936 5936 5936 5936 5936 5936 5936 5935
5910 5912 5914 5915 5916 5917 5918 5920 5921 5922 5924 5926 5927 5929 5931 5932 5934 5935 5936 5937 5938 5939 5940 5942 5943 5944 5945 5945 5946 5947 5947 5947 5947 5947 5946 5946 5946 5946 5945 5945 5944 5943 5943 5943 5943 5943 5943 5943 5943 5943 5942 5941 5940 5940 5939 5939 5939 5939 5939 5938 5938 5937 5937 5936 5937 5937 5937 5937 5936 5936 5936 5936 5936 5936 5936 5936 5936 5936 5936 5937 5937 5937 5937 5936 5936
5909 5911 5913 5915 5916 5917 5918 5919 5920 5922 5924 5925 5927 5928 5930 5932 5933 5934 5936 5937 5938 5939 5940 5942 5943 5944 5945 5946 5946 5947 5947 5947 5947 5947 5947 5946 5946 5946 5946 5946 5945 5945 5944 5944 5944 5944 5944 5944 5944 5944 5943 5942 5941 5941 5941 5940 5940 5939 5939 5939 5939 5939 5939 5938 5938 5938 5937 5937 5937 5937 5936 5936 5936 5936 5937 5937 5937 5937 5937 5937 5937 5937 5937 5937 5937
5907 5909 5912 5914 5915 5916 5917 5918 5920 5921 5923 5924 5926 5927 5929 5931 5932 5934 5935 5937 5938 5939 5940 5942 5943 5944 5945 5946 5946 5947 5947 5947 5947 5947 5947 5947 5947 5947 5946 5946 5946 5946 5946 5945 5945 5945 5945 5945 5945 5945 5944 5943 5943 5942 5942 5941 5940 5940 5940 5940 5940 5940 5940 5939 5939 5938 5938 5938 5938 5937 5937 5937 5937 5937 5937 5937 5938 5938 5938 5938 5938 5938 5938 5938 5937
5906 5907 5909 5912 5914 5916 5917 5918 5920 5921 5922 5924 5926 5927 5929 5931 5932 5934 5935 5936 5937 5939 5940 5942 5943 5944 5945 5946 5946 5947 5947 5947 5947 5948 5948 5948 5948 5948 5947 5947 5947 5947 5947 5947 5946 5946 5945 5945 5945 5945 5944 5944 5944 5943 5943 5942 5941 5941 5941 5940 5940 5940 5940 5940 5940 5940 5939 5939 5939 5939 5938 5938 5938 5938 5938 5938 5938 5938 5938 5939 5938 5938 5938 5938 5938
5905 5906 5908 5911 5913 5915 5916 5918 5919 5920 5922 5923 5925 5927 5929 5931 5933 5934 5935 5936 5937 5939 5940 5942 5943 5944 5945 5946 5946 5947 5947 5948 5948 5948 5948 5948 5948 5948 5948 5948 5947 5947 5947 5947 5947 5946 5946 5946 5945 5945 5945 5945 5944 5944 5943 5942 5942 5942 5942 5941 5941 5941 5941 5941 5941 5941 5941 5940 5940 5940 5939 5939 5939 5939 5939 5939 5939 5939 5939 5939 5939 5939 5938 5938 5938
5904 5905 5907 5909 5912 5914 5916 5917 5918 5919 5921 5923 5925 5928 5930 5932 5933 5934 5935 5936 5937 5938 5940 5942 5943 5944 5945 5946 5947 5947 5948 5948 5948 5949 5949 5949 5949 5949 5949 5948 5948 5948 5948 5948 5947 5947 5947 5947 5946 5946 5946 5945 5945 5944 5944 5943 5942 5943 5943 5942 5942 5942 5942 5942 5942 5942 5942 5942 5941 5941 5940 5940 5940 5940 5940 5940 5940 5940 5940 5940 5940 5939 5939 5938 5937
5904 5905 5906 5908 5910 5913 5915 5916 5918 5919 5920 5922 5925 5927 5930 5932 5933 5934 5935 5935 5936 5938 5940 5942 5943 5944 5945 5946 5947 5947 5948 5948 5949 5949 5949 5949 5949 5949 5949 5949 5949 5949 5949 5949 5948 5948 5948 5947 5947 5947 5946 5946 5945 5945 5944 5944 5944 5944 5944 5944 5944 5943 5943 5943 5942 5942 5942 5943 5943 5942 5942 5941 5941 5941 5941 5941 5941 5941 5941 5940 5940 5939 5939 5938 5937
5903 5904 5905 5907 5909 5912 5914 5916 5918 5919 5921 5923 5925 5927 5929 5931 5932 5933 5934 5935 5937 5938 5940 5941 5943 5944 5945 5946 5947 5947 5948 5949 5949 5949 5950 5950 5950 5950 5950 5950 5950 5950 5950 5949 5949 5949 5949 5948 5948 5947 5947 5946 5946 5946 5945 5945 5945 5945 5945 5945 5945 5944 5944 5943 5943 5943 5943 5943 5943 5943 5943 5942 5942 5941 5941 5941 5941 5941 5941 5940 5940 5939 5939 5938 5938
5902 5904 5905 5907 5909 5911 5913 5915 5918 5919 5921 5923 5924 5926 5928 5930 5932 5933 5935 5936 5937 5938 5940 5941 5942 5944 5945 5946 5947 5948 5949 5949 5950 5950 5950 5950 5950 5950 5950 5950 5950 5950 5950 5950 5950 5950 5949 5949 5949 5948 5948 5947 5947 5946 5946 5946 5946 5945 5946 5946 5945 5945 5944 5944 5944 5944 5944 5944 5944 5944 5943 5943 5942 5942 5941 5941 5941 5941 5940 5940 5940 5940 5939 5938 5938
5901 5903 5904 5906 5908 5910 5912 5915 5917 5919 5921 5923 5924 5926 5928 5930 5932 5933 5935 5937 5938 5939 5939 5940 5942 5943 5944 5946 5947 5948 5949 5949 5950 5950 5951 5951 5951 5951 5950 5950 5950 5950 5950 5950 5950 5950 5950 5950 5950 5949 5949 5948 5948 5947 5947 5947 5947 5946 5946 5946 5946 5945 5945 5945 5944 5944 5944 5944 5944 5944 5944 5943 5943 5942 5942 5941 5941 5940 5940 5940 5940 5939 5939 5938 5938
5900 5901 5902 5904 5906 5908 5911 5914 5917 5919 5921 5922 5924 5925 5927 5929 5931 5933 5935 5937 5938 5938 5939 5940 5942 5943 5944 5946 5947 5948 5949 5949 5950 5951 5951 5951 5952 5952 5951 5951 5951 5951 5951 5951 5951 5951 5950 5950 5950 5950 5949 5949 5949 5948 5948 5948 5948 5947 5947 5947 5947 5946 5945 5945 5945 5945 5945 5945 5945 5944 5944 5944 5943 5943 5942 5941 5941 5940 5940 5939 5939 5938 5938 5938 5937
5899 5900 5901 5903 5905 5908 5910 5913 5915 5918 5920 5922 5923 5924 5926 5928 5930 5932 5935 5936 5937 5938 5939 5940 5941 5943 5944 5945 5946 5947 5948 5949 5950 5950 5951 5951 5952 5952 5952 5952 5951 5951 5951 5951 5951 5951 5951 5950 5950 5950 5950 5950 5950 5949 5949 5949 5949 5949 5948 5948 5948 5947 5947 5946 5946 5945 5945 5945 5944 5944 5944 5943 5943 5942 5942 5942 5941 5940 5939 5939 5938 5938 5938 5937 5937